Regional Weather Roundup
Issued by NWS Jackson, KY

Home | Current Version | Previous Version | Text Only | Print | Product List | Glossary On
Versions: 1 2 3 4 5 6 7 8 9 10 11 12 13 14 15 16 17 18 19 20 21 22 23 24 25 26 27 28 29 30 31 32 33 34 35 36 37 38 39 40 41 42 43 44 45 46 47 48 49 50
000
ASUS43 KJKL 291010
RWRJKL

EAST KENTUCKY HOURLY WEATHER ROUNDUP
NATIONAL WEATHER SERVICE JACKSON KY
600 AM EDT FRI MAY 29 2015

NOTE: "FAIR" INDICATES FEW OR NO CLOUDS BELOW 12,000 FEET WITH
NO SIGNIFICANT WEATHER AND/OR OBSTRUCTIONS TO VISIBILITY.

* THESE REPORTS ARE NOT UNDER NWS QUALITY CONTROL AND MAY NOT
  REPORT WEATHER SUCH AS PRECIPITATION AND FOG.

KYZ079-080-083-085-087-088-110-112-115-119-120-291100
...EASTERN KENTUCKY...

CITY           SKY/WX    TMP DP  RH WIND       PRES   REMARKS
JACKSON        CLEAR     67  63  87 CALM      30.19R
LONDON         FOG       64  61  90 CALM      30.18R VSB 1
SOMERSET*      FOG       61  61 100 CALM      30.17S VSB 1
MONTICELLO*    CLEAR     62  62 100 CALM      30.19R
MIDDLESBORO*   MOCLDY    64  64 100 CALM      30.21R
HARLAN APT*    CLOUDY    63  63 100 CALM      30.22R
HAZARD APT*    CLOUDY    64  64 100 CALM      30.20R FOG
BLACK MTN*       N/A     59  59 100 W2          N/A
PIKEVILLE APT* CLEAR     64  63  94 SE3       30.21R
BIG SANDY*     PTSUNNY   67  63  86 S3        30.19R
MOREHEAD APT*  CLOUDY    66  64  94 CALM      30.19R
$$

KYZ035-036-041-042-044-050-067-078-099-291100
...CENTRAL KENTUCKY...

CITY           SKY/WX    TMP DP  RH WIND       PRES   REMARKS
MT STERLING*   CLEAR     66  64  94 CALM      30.18S
DANVILLE*      MOCLDY    61  61 100 CALM      30.17S FOG
RICHMOND*      CLEAR     63  61  94 SE3       30.16S
LEXINGTON      CLEAR     66  64  93 SE6       30.15S
FRANKFORT      CLEAR     64  63  96 CALM      30.13S
$$

KYZ091>093-OHZ055-061-077-WVZ005-015-034-035-042-291100
...SOUTHERN OHIO/WEST VIRGINIA...

CITY           SKY/WX    TMP DP  RH WIND       PRES   REMARKS
COVINGTON      PTCLDY    67  65  93 SE3       30.14S
COLUMBUS       CLOUDY    67  62  84 E5        30.15S
DAYTON         RAIN      70  66  87 S10       30.17R FOG
WILMINGTON     MOCLDY    67  63  87 CALM      30.16R
HUNTINGTON     CLOUDY    66  65  96 E3        30.16R
CHARLESTON     MOCLDY    64  63  96 CALM      30.18R FOG
PINEVILLE*     PTCLDY    60  60 100 MISG      30.28R
BECKLEY        CLEAR     65  59  81 SE6       30.25R
BLUEFIELD      PTCLDY    67  58  72 VRB5      30.28R
$$

VAZ002-007-008-TNZ017-027-036-066-071-291100
...SOUTHWEST VIRGINIA/EAST TENNESSEE...

CITY           SKY/WX    TMP DP  RH WIND       PRES   REMARKS
WISE*          CLEAR     61  61 100 S3        30.27R
JONESVILLE*    SUNNY     59  59 100 CALM      30.23R
ABINGDON*      CLEAR     64  63  94 E6        30.24R
BRISTOL        FOG       63  62  97 CALM      30.22R VSB 1/4
KNOXVILLE      MOCLDY    67  65  93 N5        30.17R
OAK RIDGE      PTCLDY    65  63  93 CALM      30.19R
CROSSVILLE     MOCLDY    64  61  90 CALM      30.20R
NASHVILLE      MOCLDY    66  65  96 S5        30.11F
$$

...KEY TO REMARKS...
VSB - VISIBILITY IN MILES
WCI - WIND CHILL INDEX
HX  - HEAT INDEX

$$


USA.gov is the U.S. government's official web portal to all federal, state and local government web resources and services.